• In Belarus
  • List of Countries
  • For 7 days
  • Water Temperature
  • Satellite Maps
  • Weather Map
  • Weather Widgets
  • user-avatar
    Login

    Hourly Weather Poidunivka

    Today, 24 June, Monday

    Time Temperature Precipitation Wind Pressure Humidity
    00:00 +23°C° 0 mm 8 mps 752 mmHg 77%
    01:00 +23°C° 0 mm 7 mps 752 mmHg 76%
    02:00 +22°C° 0 mm 6 mps 752 mmHg 74%
    03:00 +23°C° 0 mm 4 mps 751 mmHg 75%
    04:00 +23°C° 0 mm 4 mps 751 mmHg 77%
    05:00 +23°C° 0 mm 4 mps 751 mmHg 78%
    06:00 +22°C° 0 mm 3 mps 751 mmHg 80%
    07:00 +25°C° 0 mm 2 mps 751 mmHg 75%
    08:00 +26°C° 0 mm 2 mps 752 mmHg 69%
    09:00 +27°C° 0 mm 3 mps 752 mmHg 67%
    10:00 +28°C° 0 mm 2 mps 752 mmHg 62%
    11:00 +28°C° 0 mm 2 mps 752 mmHg 58%
    12:00 +29°C° 0 mm 2 mps 752 mmHg 53%
    13:00 +30°C° 0 mm 2 mps 752 mmHg 51%
    14:00 +31°C° 0 mm 3 mps 752 mmHg 50%
    15:00 +33°C° 0 mm 3 mps 752 mmHg 48%
    16:00 +30°C° 0.4 mm 3 mps 752 mmHg 53%
    17:00 +29°C° 0.4 mm 2 mps 752 mmHg 59%
    18:00 +27°C° 0.4 mm 2 mps 752 mmHg 64%
    19:00 +27°C° 0.2 mm 2 mps 752 mmHg 67%
    20:00 +26°C° 0.2 mm 2 mps 752 mmHg 70%
    21:00 +25°C° 0.2 mm 3 mps 753 mmHg 73%
    22:00 +25°C° 0 mm 4 mps 753 mmHg 77%
    23:00 +23°C° 0 mm 5 mps 753 mmHg 80%

    Tomorrow, 25 June, Tuesday

    Time Temperature Precipitation Wind Pressure Humidity
    00:00 +23°C° 0 mm 6 mps 753 mmHg 84%
    01:00 +23°C° 0 mm 6 mps 753 mmHg 86%
    02:00 +22°C° 0 mm 5 mps 753 mmHg 87%
    03:00 +22°C° 0 mm 5 mps 753 mmHg 89%
    04:00 +22°C° 0 mm 6 mps 753 mmHg 89%
    05:00 +21°C° 0 mm 6 mps 753 mmHg 89%
    06:00 +20°C° 0 mm 7 mps 753 mmHg 88%
    07:00 +21°C° 0 mm 7 mps 754 mmHg 85%
    08:00 +21°C° 0 mm 7 mps 754 mmHg 82%
    09:00 +22°C° 0 mm 8 mps 755 mmHg 79%
    10:00 +23°C° 0 mm 7 mps 755 mmHg 75%
    11:00 +24°C° 0 mm 7 mps 755 mmHg 71%
    12:00 +26°C° 0 mm 6 mps 755 mmHg 67%
    13:00 +27°C° 0 mm 6 mps 756 mmHg 65%
    14:00 +27°C° 0 mm 7 mps 756 mmHg 62%
    15:00 +28°C° 0 mm 7 mps 756 mmHg 59%
    16:00 +27°C° 0 mm 7 mps 756 mmHg 59%
    17:00 +26°C° 0 mm 6 mps 756 mmHg 59%
    18:00 +24°C° 0 mm 6 mps 756 mmHg 59%
    19:00 +23°C° 0 mm 6 mps 757 mmHg 61%
    20:00 +22°C° 0 mm 6 mps 757 mmHg 64%
    21:00 +20°C° 0 mm 5 mps 758 mmHg 66%
    22:00 +19°C° 0 mm 5 mps 758 mmHg 68%
    23:00 +17°C° 0 mm 5 mps 758 mmHg 70%

    Day after tomorrow, 26 June, Wednesday

    Time Temperature Precipitation Wind Pressure Humidity
    00:00 +17°C° 0 mm 4 mps 758 mmHg 73%
    01:00 +15°C° 0 mm 4 mps 758 mmHg 75%
    02:00 +15°C° 0 mm 4 mps 758 mmHg 78%
    03:00 +14°C° 0 mm 4 mps 758 mmHg 81%
    04:00 +14°C° 0 mm 4 mps 758 mmHg 80%
    05:00 +15°C° 0 mm 4 mps 758 mmHg 79%
    06:00 +15°C° 0 mm 4 mps 758 mmHg 78%
    07:00 +17°C° 0 mm 4 mps 759 mmHg 72%
    08:00 +19°C° 0 mm 4 mps 759 mmHg 66%
    09:00 +21°C° 0 mm 5 mps 759 mmHg 60%
    10:00 +22°C° 0 mm 5 mps 759 mmHg 56%
    11:00 +23°C° 0 mm 5 mps 758 mmHg 53%
    12:00 +25°C° 0 mm 5 mps 758 mmHg 49%
    13:00 +25°C° 0 mm 4 mps 758 mmHg 48%
    14:00 +26°C° 0 mm 4 mps 758 mmHg 46%
    15:00 +26°C° 0 mm 4 mps 757 mmHg 45%
    16:00 +26°C° 0 mm 4 mps 757 mmHg 47%
    17:00 +25°C° 0 mm 4 mps 756 mmHg 50%
    18:00 +25°C° 0 mm 4 mps 756 mmHg 52%
    19:00 +22°C° 0 mm 3 mps 756 mmHg 58%
    20:00 +20°C° 0 mm 3 mps 756 mmHg 65%
    21:00 +18°C° 0 mm 3 mps 755 mmHg 71%
    22:00 +17°C° 0 mm 2 mps 755 mmHg 72%
    23:00 +18°C° 0 mm 1 mps 755 mmHg 73%

    27 June, Thursday

    Time Temperature Precipitation Wind Pressure Humidity
    00:00 +16°C° 0 mm 1 mps 755 mmHg 74%
    01:00 +14°C° 0 mm 0 mps 754 mmHg 74%
    02:00 +14°C° 0 mm 0 mps 754 mmHg 75%
    03:00 +14°C° 0 mm 0 mps 754 mmHg 76%
    04:00 +14°C° 0 mm 0 mps 753 mmHg 75%
    05:00 +16°C° 0 mm 1 mps 753 mmHg 74%
    06:00 +18°C° 0 mm 1 mps 753 mmHg 73%
    07:00 +19°C° 0 mm 2 mps 752 mmHg 68%
    08:00 +20°C° 0 mm 2 mps 752 mmHg 63%
    09:00 +23°C° 0 mm 2 mps 751 mmHg 58%
    10:00 +24°C° 0 mm 2 mps 751 mmHg 55%
    11:00 +25°C° 0 mm 2 mps 750 mmHg 52%
    12:00 +26°C° 0 mm 2 mps 750 mmHg 49%
    13:00 +26°C° 0 mm 3 mps 749 mmHg 48%
    14:00 +27°C° 0 mm 3 mps 749 mmHg 47%
    15:00 +27°C° 0 mm 3 mps 748 mmHg 46%
    16:00 +27°C° 0 mm 3 mps 747 mmHg 49%
    17:00 +27°C° 0 mm 3 mps 746 mmHg 52%
    18:00 +26°C° 0 mm 3 mps 746 mmHg 55%
    19:00 +25°C° 0 mm 3 mps 745 mmHg 57%
    20:00 +24°C° 0 mm 3 mps 744 mmHg 58%
    21:00 +21°C° 0 mm 3 mps 744 mmHg 60%
    22:00 +21°C° 0 mm 3 mps 743 mmHg 60%
    23:00 +20°C° 0 mm 4 mps 742 mmHg 61%

    28 June, Friday

    Time Temperature Precipitation Wind Pressure Humidity
    00:00 +19°C° 0 mm 4 mps 741 mmHg 61%
    01:00 +19°C° 0.6 mm 5 mps 741 mmHg 69%
    02:00 +17°C° 0.6 mm 5 mps 740 mmHg 77%
    03:00 +17°C° 0.6 mm 5 mps 740 mmHg 85%
    04:00 +17°C° 0 mm 5 mps 740 mmHg 87%
    05:00 +17°C° 0 mm 5 mps 740 mmHg 88%
    06:00 +17°C° 0 mm 5 mps 740 mmHg 90%
    07:00 +17°C° 0.1 mm 6 mps 740 mmHg 85%
    08:00 +17°C° 0.1 mm 6 mps 740 mmHg 81%
    09:00 +18°C° 0.1 mm 7 mps 740 mmHg 76%
    10:00 +17°C° 0 mm 7 mps 740 mmHg 75%
    11:00 +17°C° 0 mm 7 mps 740 mmHg 73%
    12:00 +17°C° 0 mm 6 mps 740 mmHg 72%
    13:00 +17°C° 0 mm 7 mps 740 mmHg 70%
    14:00 +17°C° 0 mm 7 mps 740 mmHg 67%
    15:00 +18°C° 0 mm 7 mps 740 mmHg 64%
    16:00 +18°C° 0.1 mm 7 mps 740 mmHg 65%
    17:00 +18°C° 0.1 mm 7 mps 740 mmHg 66%
    18:00 +17°C° 0.1 mm 7 mps 740 mmHg 67%
    19:00 +16°C° 0 mm 6 mps 741 mmHg 70%
    20:00 +15°C° 0 mm 5 mps 741 mmHg 74%
    21:00 +14°C° 0 mm 4 mps 741 mmHg 77%
    22:00 +14°C° 0 mm 5 mps 741 mmHg 78%
    23:00 +13°C° 0 mm 5 mps 741 mmHg 79%

    29 June, Saturday

    Time Temperature Precipitation Wind Pressure Humidity
    00:00 +13°C° 0 mm 6 mps 740 mmHg 80%
    01:00 +13°C° 0 mm 6 mps 740 mmHg 82%
    02:00 +13°C° 0 mm 6 mps 740 mmHg 83%
    03:00 +11°C° 0 mm 6 mps 740 mmHg 85%
    04:00 +11°C° 0 mm 6 mps 740 mmHg 84%
    05:00 +11°C° 0 mm 6 mps 740 mmHg 83%
    06:00 +11°C° 0 mm 6 mps 740 mmHg 82%
    07:00 +14°C° 0 mm 6 mps 740 mmHg 75%
    08:00 +15°C° 0 mm 7 mps 740 mmHg 68%
    09:00 +17°C° 0 mm 7 mps 740 mmHg 61%
    10:00 +17°C° 0.2 mm 7 mps 739 mmHg 58%
    11:00 +18°C° 0.2 mm 7 mps 739 mmHg 55%
    12:00 +18°C° 0.2 mm 7 mps 739 mmHg 51%
    13:00 +18°C° 0.4 mm 7 mps 739 mmHg 53%
    14:00 +18°C° 0.4 mm 7 mps 739 mmHg 55%
    15:00 +18°C° 0.4 mm 7 mps 739 mmHg 57%
    16:00 +17°C° 0.2 mm 7 mps 739 mmHg 59%
    17:00 +17°C° 0.2 mm 7 mps 739 mmHg 60%
    18:00 +16°C° 0.2 mm 7 mps 739 mmHg 61%
    19:00 +15°C° 0.1 mm 6 mps 740 mmHg 69%
    20:00 +13°C° 0.1 mm 5 mps 740 mmHg 76%
    21:00 +11°C° 0.1 mm 4 mps 740 mmHg 84%
    22:00 +10°C° 0 mm 4 mps 740 mmHg 86%
    23:00 +8°C° 0 mm 4 mps 740 mmHg 89%
    Show more